TimeEDT,TemperatureF,Dew PointF,Humidity,Sea Level PressureIn,VisibilityMPH,Wind Direction,Wind SpeedMPH,Gust SpeedMPH,PrecipitationIn,Events,Conditions,WindDirDegrees,DateUTC
12:58 AM,70.5,68.2,92,29.79,10.0,SSE,6.9,-,N/A,,Mostly Cloudy,150,2013-06-27 04:58:00
1:37 AM,69.8,68.0,94,29.78,10.0,SE,4.6,-,N/A,Rain,Light Rain,130,2013-06-27 05:37:00
1:58 AM,69.8,68.0,94,29.77,10.0,South,5.8,-,0.00,,Overcast,180,2013-06-27 05:58:00
2:08 AM,69.8,68.0,94,29.78,10.0,South,5.8,-,N/A,,Overcast,180,2013-06-27 06:08:00
2:23 AM,69.8,66.2,88,29.79,10.0,South,9.2,-,N/A,Rain,Light Rain,180,2013-06-27 06:23:00
2:58 AM,68.7,67.1,95,29.77,10.0,South,8.1,-,0.01,,Overcast,190,2013-06-27 06:58:00
3:08 AM,68.0,66.2,94,29.78,6.0,South,5.8,-,N/A,Rain,Light Rain,180,2013-06-27 07:08:00
3:15 AM,68.0,68.0,100,29.78,10.0,South,6.9,-,N/A,Rain,Light Rain,190,2013-06-27 07:15:00
3:29 AM,68.0,66.2,94,29.78,10.0,South,6.9,-,N/A,Rain,Light Rain,170,2013-06-27 07:29:00
3:39 AM,68.0,66.2,94,29.77,8.0,SSE,4.6,-,N/A,Rain,Light Rain,160,2013-06-27 07:39:00
3:50 AM,68.0,66.2,94,29.77,10.0,South,3.5,-,N/A,,Overcast,170,2013-06-27 07:50:00
3:58 AM,68.4,66.9,95,29.76,10.0,South,4.6,-,0.01,Rain,Light Rain,180,2013-06-27 07:58:00
3:59 AM,68.0,66.2,94,29.77,10.0,South,4.6,-,N/A,Rain,Light Rain,180,2013-06-27 07:59:00
4:09 AM,68.0,66.2,94,29.77,5.0,SSW,3.5,-,N/A,Rain,Rain,200,2013-06-27 08:09:00
4:19 AM,68.0,68.0,100,29.77,5.0,SSW,4.6,-,N/A,Rain,Rain,200,2013-06-27 08:19:00
4:29 AM,68.0,68.0,100,29.77,6.0,South,4.6,-,N/A,Rain,Light Rain,190,2013-06-27 08:29:00
4:39 AM,68.0,68.0,100,29.77,8.0,South,4.6,-,N/A,Rain,Light Rain,190,2013-06-27 08:39:00
4:43 AM,68.0,68.0,100,29.77,10.0,SSW,5.8,-,N/A,,Overcast,200,2013-06-27 08:43:00
4:58 AM,68.5,67.6,97,29.77,6.0,SSW,5.8,-,0.10,,Overcast,210,2013-06-27 08:58:00
5:38 AM,68.0,68.0,100,29.76,10.0,South,6.9,-,N/A,,Overcast,190,2013-06-27 09:38:00
5:58 AM,69.1,68.2,97,29.76,9.0,SSW,6.9,-,N/A,,Overcast,210,2013-06-27 09:58:00
6:18 AM,69.8,68.0,94,29.77,7.0,SW,6.9,-,N/A,,Overcast,220,2013-06-27 10:18:00
6:38 AM,69.8,68.0,94,29.77,3.0,SW,8.1,-,N/A,,Overcast,220,2013-06-27 10:38:00
6:48 AM,68.0,68.0,100,29.77,5.0,SW,8.1,-,N/A,,Overcast,230,2013-06-27 10:48:00
6:58 AM,68.9,68.0,97,29.77,3.0,SW,6.9,-,N/A,,Overcast,230,2013-06-27 10:58:00
7:18 AM,68.0,68.0,100,29.78,4.0,SW,10.4,-,N/A,,Overcast,230,2013-06-27 11:18:00
7:41 AM,68.0,68.0,100,29.78,5.0,WSW,8.1,-,N/A,,Light Drizzle,240,2013-06-27 11:41:00
7:58 AM,68.9,68.0,97,29.78,3.0,WSW,8.1,-,0.00,,Light Drizzle,240,2013-06-27 11:58:00
8:11 AM,69.8,68.0,94,29.78,5.0,SW,8.1,-,N/A,,Light Drizzle,230,2013-06-27 12:11:00
8:21 AM,69.8,68.0,94,29.78,3.0,SW,6.9,-,N/A,,Overcast,230,2013-06-27 12:21:00
8:41 AM,69.8,69.8,100,29.78,3.0,WSW,5.8,-,N/A,,Overcast,240,2013-06-27 12:41:00
8:58 AM,69.6,69.4,99,29.77,3.0,SW,5.8,-,0.00,,Overcast,230,2013-06-27 12:58:00
9:51 AM,71.6,71.6,100,29.77,3.0,WSW,6.9,-,N/A,,Overcast,240,2013-06-27 13:51:00
9:58 AM,71.8,70.5,96,29.77,3.0,WSW,9.2,-,N/A,,Overcast,250,2013-06-27 13:58:00
10:08 AM,71.6,69.8,94,29.77,4.0,West,8.1,-,N/A,,Overcast,270,2013-06-27 14:08:00
10:18 AM,71.6,69.8,94,29.77,4.0,WSW,5.8,-,N/A,,Overcast,250,2013-06-27 14:18:00
10:48 AM,73.4,68.0,83,29.77,5.0,West,6.9,-,N/A,,Mostly Cloudy,260,2013-06-27 14:48:00
10:58 AM,73.0,68.0,84,29.77,5.0,WSW,6.9,-,N/A,,Mostly Cloudy,250,2013-06-27 14:58:00
11:08 AM,73.4,68.0,83,29.77,5.0,WSW,6.9,-,N/A,,Overcast,250,2013-06-27 15:08:00
11:28 AM,73.4,68.0,83,29.77,5.0,West,4.6,-,N/A,,Overcast,260,2013-06-27 15:28:00
11:38 AM,75.2,68.0,78,29.77,5.0,West,4.6,-,N/A,,Mostly Cloudy,270,2013-06-27 15:38:00
11:58 AM,76.5,68.0,75,29.76,10.0,Variable,4.6,-,N/A,,Mostly Cloudy,0,2013-06-27 15:58:00
12:08 PM,77.0,68.0,74,29.77,10.0,Variable,5.8,-,N/A,,Scattered Clouds,0,2013-06-27 16:08:00
12:58 PM,81.3,67.1,62,29.76,10.0,West,8.1,-,N/A,,Scattered Clouds,270,2013-06-27 16:58:00
1:58 PM,80.2,66.6,63,29.75,10.0,Variable,6.9,-,N/A,,Scattered Clouds,0,2013-06-27 17:58:00
2:58 PM,84.9,66.2,53,29.75,10.0,West,11.5,17.3,N/A,,Partly Cloudy,280,2013-06-27 18:58:00
3:58 PM,85.6,65.3,50,29.74,10.0,WNW,12.7,-,N/A,,Partly Cloudy,300,2013-06-27 19:58:00
4:58 PM,86.0,64.4,48,29.73,10.0,West,12.7,-,N/A,,Scattered Clouds,280,2013-06-27 20:58:00
5:58 PM,86.2,64.9,49,29.72,10.0,West,15.0,-,N/A,,Partly Cloudy,270,2013-06-27 21:58:00
6:58 PM,84.9,64.6,50,29.72,10.0,West,13.8,23.0,N/A,,Scattered Clouds,270,2013-06-27 22:58:00
7:58 PM,82.6,65.1,55,29.73,10.0,West,16.1,-,N/A,,Scattered Clouds,270,2013-06-27 23:58:00
8:58 PM,80.1,65.3,61,29.73,10.0,West,8.1,-,N/A,,Mostly Cloudy,260,2013-06-28 00:58:00
9:58 PM,76.5,66.7,72,29.70,10.0,SW,2.3,-,N/A,,Mostly Cloudy,220,2013-06-28 01:58:00
10:58 PM,74.3,67.5,79,29.70,10.0,SSW,4.6,-,N/A,,Mostly Cloudy,200,2013-06-28 02:58:00
11:12 PM,73.4,68.0,83,29.70,10.0,SW,5.8,-,N/A,Thunderstorm,Mostly Cloudy,230,2013-06-28 03:12:00
11:34 PM,75.2,68.0,78,29.70,10.0,WSW,4.6,-,N/A,,Mostly Cloudy,240,2013-06-28 03:34:00
11:58 PM,76.5,66.7,72,29.69,10.0,Variable,5.8,-,N/A,,Mostly Cloudy,0,2013-06-28 03:58:00